FW5763 Weather Reports


Display with metric or nautical units.
time (UTC)temp
F
wind
direction
speed
MPH
gust
MPH
rain 1hr
in
rain 24hr
in
rain mn
in
humidity
%
barometer
mb
20260503184116 59 203 5.0 9.0 0.00 0.00 0.00 75 1014.5
20260503183115 59 224 5.0 9.0 0.00 0.00 0.00 73 1014.5
20260503182136 58 174 5.0 7.0 0.00 0.00 0.00 72 1014.5
20260503181156 58 186 3.0 5.0 0.00 0.00 0.00 76 1014.4
20260503180116 58 259 3.0 8.0 0.00 0.00 0.00 76 1014.5
20260503175116 58 187 4.0 7.0 0.00 0.00 0.00 78 1014.6
20260503174216 58 223 5.0 9.0 0.00 0.00 0.00 78 1014.5
20260503173115 57 184 3.0 8.0 0.00 0.00 0.00 77 1014.4
20260503172116 57 210 7.0 10.0 0.00 0.00 0.00 72 1014.4
20260503171116 57 216 2.0 3.0 0.00 0.00 0.00 74 1014.3
20260503170136 57 297 2.0 4.0 0.00 0.00 0.00 76 1014.3
20260503160116 53 343 3.0 4.0 0.00 0.00 0.00 90 1014.2
20260503150116 53 220 2.0 3.0 0.00 0.00 0.00 90 1013.9
20260503140116 52 0.0 0.0 0.00 0.00 0.00 90 1013.2
20260503131156 52 0.0 0.0 0.00 0.00 0.00 90 1012.5
20260503130116 52 0.0 0.0 0.00 0.00 0.00 90 1012.5
20260503120116 52 298 1.0 2.0 0.00 0.00 0.00 90 1012.0
20260503110116 53 251 1.0 2.0 0.00 0.00 0.00 87 1012.2
20260503100116 53 294 0.0 1.0 0.00 0.00 0.00 86 1012.0
20260503090116 54 298 1.0 2.0 0.00 0.00 0.00 85 1012.3
20260503081136 54 248 1.0 3.0 0.00 0.00 0.00 86 1012.7
20260503080116 54 236 0.0 2.0 0.00 0.00 0.00 85 1012.7
20260503072136 55 248 1.0 1.0 0.00 0.00 0.00 84 1012.8
20260503071115 55 266 1.0 3.0 0.00 0.00 0.00 83 1012.7
20260503070116 55 103 1.0 2.0 0.00 0.00 0.00 83 1012.8
20260503060115 55 0.0 1.0 0.00 0.00 0.00 82 1012.9
20260503055116 55 284 0.0 1.0 0.00 0.00 0.00 82 1012.9
20260503054116 55 0.0 0.0 0.00 0.00 0.00 82 1013.0
20260503053138 55 99 0.0 1.0 0.00 0.00 0.00 82 1013.2
20260503052118 55 113 1.0 2.0 0.00 0.00 0.00 82 1013.2
20260503051118 56 104 1.0 2.0 0.00 0.00 0.00 81 1013.2
20260503050118 56 108 2.0 3.0 0.00 0.00 0.00 81 1013.2
20260503045118 56 0.0 0.0 0.00 0.00 0.00 81 1013.2
20260503044118 56 85 2.0 3.0 0.00 0.00 0.00 81 1013.1
20260503043118 56 119 1.0 2.0 0.00 0.00 0.00 81 1012.9
20260503042118 56 74 2.0 6.0 0.00 0.00 0.00 81 1012.9
20260503041118 56 0.0 0.0 0.00 0.00 0.00 81 1012.7
20260503040118 56 58 2.0 4.0 0.00 0.00 0.00 81 1012.5
20260503035118 56 88 2.0 3.0 0.00 0.00 0.00 82 1012.3
20260503034118 56 70 3.0 4.0 0.00 0.00 0.00 82 1012.1
20260503033118 56 59 2.0 3.0 0.00 0.00 0.00 82 1012.1
20260503032118 56 67 2.0 4.0 0.00 0.00 0.00 82 1012.1
20260503031118 56 85 2.0 4.0 0.00 0.00 0.00 81 1011.9
20260503030118 56 74 1.0 4.0 0.00 0.00 0.00 81 1012.0
20260503025118 57 92 3.0 5.0 0.00 0.00 0.00 80 1011.9
20260503024118 57 85 2.0 3.0 0.00 0.00 0.00 79 1011.9
20260503023118 58 95 3.0 4.0 0.00 0.00 0.00 78 1011.8
20260503022138 58 47 2.0 7.0 0.00 0.00 0.00 77 1011.7
20260503021117 58 85 2.0 6.0 0.00 0.00 0.00 76 1011.6
20260503020117 59 105 3.0 6.0 0.00 0.00 0.00 76 1011.7
20260503015117 59 141 3.0 7.0 0.00 0.00 0.00 75 1011.7
20260503014135 59 90 4.0 6.0 0.00 0.00 0.00 75 1011.8
20260503013118 60 101 3.0 4.0 0.00 0.00 0.00 74 1011.8
20260503012118 60 106 2.0 6.0 0.00 0.00 0.00 73 1011.9
20260503011118 61 94 1.0 6.0 0.00 0.00 0.00 72 1011.8
20260503010115 61 125 3.0 6.0 0.00 0.00 0.00 71 1011.9
20260503005118 62 206 2.0 4.0 0.00 0.00 0.00 71 1011.9
20260503004118 62 115 3.0 4.0 0.00 0.00 0.00 70 1011.8
20260503003138 62 159 3.0 6.0 0.00 0.00 0.00 70 1012.0
20260503002118 62 141 3.0 9.0 0.00 0.00 0.00 69 1011.9
20260503001117 62 175 1.0 2.0 0.00 0.00 0.00 71 1012.0
20260503000117 63 162 3.0 9.0 0.00 0.00 0.00 69 1011.9
20260502235118 63 227 3.0 7.0 0.00 0.00 0.00 69 1012.0
20260502234118 63 137 3.0 8.0 0.00 0.00 0.00 69 1012.2
20260502233117 63 219 5.0 8.0 0.00 0.00 0.00 70 1012.1
20260502232118 63 202 4.0 6.0 0.00 0.00 0.00 71 1012.3
20260502231117 63 226 5.0 7.0 0.00 0.00 0.00 71 1012.6
20260502230138 63 157 2.0 8.0 0.00 0.00 0.00 71 1012.7
20260502225117 62 150 3.0 6.0 0.00 0.00 0.00 72 1012.9
20260502224115 62 212 6.0 9.0 0.00 0.00 0.00 72 1013.1
20260502223117 62 188 6.0 9.0 0.00 0.00 0.00 74 1013.2
20260502222118 61 106 4.0 9.0 0.00 0.00 0.00 73 1013.3
20260502221117 61 151 1.0 7.0 0.00 0.00 0.00 76 1013.5
20260502220115 60 234 1.0 2.0 0.00 0.00 0.00 78 1013.7
20260502215117 60 184 4.0 5.0 0.00 0.00 0.00 78 1014.1
20260502214117 60 127 4.0 7.0 0.00 0.00 0.00 80 1014.2
20260502213118 59 173 4.0 7.0 0.00 0.00 0.00 80 1014.3
20260502212136 59 175 4.0 9.0 0.00 0.00 0.00 81 1014.3
20260502211118 58 199 2.0 6.0 0.00 0.00 0.00 81 1014.3
20260502210137 58 202 3.0 5.0 0.00 0.00 0.00 82 1014.3
20260502205137 58 248 1.0 3.0 0.00 0.00 0.00 82 1014.5
20260502204117 58 200 2.0 3.0 0.00 0.00 0.00 82 1014.7
20260502203117 58 120 3.0 5.0 0.00 0.00 0.00 83 1015.0
20260502202115 57 156 4.0 5.0 0.00 0.00 0.00 83 1015.1
20260502201115 57 154 3.0 5.0 0.00 0.00 0.00 82 1015.2
20260502200115 57 164 1.0 2.0 0.00 0.00 0.00 84 1015.4
20260502195115 57 149 2.0 4.0 0.00 0.00 0.00 84 1015.5
20260502194115 57 205 1.0 4.0 0.00 0.00 0.00 85 1015.6
20260502193115 57 143 3.0 5.0 0.00 0.00 0.00 86 1015.7
20260502192115 56 165 3.0 5.0 0.00 0.00 0.00 86 1015.6
20260502191115 56 179 2.0 4.0 0.00 0.00 0.00 85 1015.6
20260502190114 56 137 2.0 4.0 0.00 0.00 0.00 85 1015.6
20260502185114 57 215 2.0 4.0 0.00 0.00 0.00 84 1015.6